JAL693 MYGF-KATL

Flight info

Callsign JAL693
Flight time N/A
Altitude 40000
Route ZFP Y624 JAKEL DCT WAKUP Q89 PRMUS DCT LAIRI DCT LARZZ JJEDI4
Aircraft A359/H-SDE2E3GHIJ3J4J5LM1ORWXY/LB1D1

Departure

Time 2026-04-25 15:26
Airport Grand Bahama International Airport (MYGF)

Arrival

Time N/A
Airport Hartsfield Jackson Atlanta International Airport (KATL)
Time Latitude Longitude Altitude Speed Heading
2026-04-25 15:13 26.54851 -78.70588 22 ft 0 kts 176°
2026-04-25 15:19 26.54854 -78.70588 22 ft 2 kts 175°
2026-04-25 15:20 26.54871 -78.70589 24 ft 3 kts 180°
2026-04-25 15:20 26.54891 -78.70589 24 ft 3 kts 180°
2026-04-25 15:20 26.54912 -78.70589 24 ft 3 kts 180°
2026-04-25 15:20 26.54932 -78.70589 23 ft 3 kts 180°
2026-04-25 15:21 26.54950 -78.70589 24 ft 2 kts 180°
2026-04-25 15:21 26.54962 -78.70589 24 ft 3 kts 193°
2026-04-25 15:21 26.54974 -78.70584 22 ft 3 kts 259°
2026-04-25 15:21 26.54972 -78.70564 21 ft 3 kts 283°
2026-04-25 15:22 26.54969 -78.70544 22 ft 2 kts 273°
2026-04-25 15:22 26.54969 -78.70536 21 ft 0 kts 272°
2026-04-25 15:24 26.54969 -78.70537 20 ft 1 kts 272°
2026-04-25 15:24 26.54970 -78.70591 20 ft 11 kts 272°
2026-04-25 15:24 26.54973 -78.70690 20 ft 15 kts 272°
2026-04-25 15:24 26.54976 -78.70772 20 ft 17 kts 272°
2026-04-25 15:25 26.54979 -78.70921 20 ft 12 kts 271°
2026-04-25 15:25 26.55012 -78.71006 23 ft 13 kts 333°
2026-04-25 15:25 26.55111 -78.71007 22 ft 16 kts 13°
2026-04-25 15:25 26.55187 -78.70925 24 ft 16 kts 61°
2026-04-25 15:26 26.55343 -78.70615 26 ft 87 kts 61°
2026-04-25 15:26 26.55764 -78.69774 20 ft 159 kts 60°
2026-04-25 15:26 26.56356 -78.68586 594 ft 175 kts 62°
2026-04-25 15:26 26.56915 -78.67419 1749 ft 167 kts 63°
2026-04-25 15:27 26.57433 -78.66246 2592 ft 177 kts 63°
2026-04-25 15:27 26.58238 -78.65091 2710 ft 205 kts 31°
2026-04-25 15:27 26.61329 -78.65297 3288 ft 250 kts 339°
2026-04-25 15:28 26.62804 -78.66384 3875 ft 260 kts 315°
2026-04-25 15:28 26.63942 -78.67986 4565 ft 266 kts 304°
2026-04-25 15:28 26.64855 -78.69808 5273 ft 271 kts 297°
2026-04-25 15:28 26.65638 -78.71729 6011 ft 272 kts 294°
2026-04-25 15:29 26.66372 -78.73681 6765 ft 273 kts 292°
2026-04-25 15:29 26.67743 -78.77302 8081 ft 275 kts 294°
2026-04-25 15:29 26.69316 -78.81218 9552 ft 277 kts 295°
2026-04-25 15:29 26.70974 -78.85200 10546 ft 295 kts 295°
2026-04-25 15:30 26.72813 -78.89589 11013 ft 327 kts 295°
2026-04-25 15:30 26.74804 -78.94356 11675 ft 346 kts 295°
2026-04-25 15:30 26.77506 -79.00846 13066 ft 351 kts 295°
2026-04-25 15:30 26.82211 -79.10542 14919 ft 361 kts 310°
2026-04-25 15:31 26.90263 -79.17427 16772 ft 369 kts 325°
2026-04-25 15:31 26.98966 -79.23763 18547 ft 377 kts 324°
2026-04-25 15:31 27.07780 -79.30382 20058 ft 385 kts 324°
2026-04-25 15:31 27.16788 -79.37168 21534 ft 394 kts 324°
2026-04-25 15:32 27.25981 -79.44103 22953 ft 402 kts 325°
2026-04-25 15:32 27.35363 -79.51194 24187 ft 411 kts 325°
2026-04-25 15:32 27.44949 -79.58456 25370 ft 420 kts 325°
2026-04-25 15:33 27.61299 -79.70876 27477 ft 436 kts 325°
2026-04-25 15:33 27.63820 -79.72796 27823 ft 439 kts 325°
2026-04-25 15:33 27.66355 -79.74726 28186 ft 441 kts 325°
2026-04-25 15:33 27.68872 -79.76645 28553 ft 444 kts 325°
2026-04-25 15:34 27.71435 -79.78600 28947 ft 446 kts 325°
2026-04-25 15:34 27.74012 -79.80566 29321 ft 449 kts 326°
2026-04-25 15:34 27.76607 -79.82547 29702 ft 452 kts 326°
2026-04-25 15:34 27.78371 -79.83895 29955 ft 454 kts 326°
2026-04-25 15:35 27.84490 -79.88572 30773 ft 460 kts 326°
2026-04-25 15:35 27.85188 -79.89106 30878 ft 460 kts 326°
2026-04-25 15:35 27.87294 -79.90719 31174 ft 462 kts 326°
2026-04-25 15:36 27.92641 -79.94815 31890 ft 466 kts 326°
2026-04-25 15:36 27.95334 -79.96879 32225 ft 469 kts 326°
2026-04-25 15:36 27.98038 -79.98954 32558 ft 471 kts 326°
2026-04-25 15:37 28.00755 -80.01040 32903 ft 473 kts 326°
2026-04-25 15:37 28.03480 -80.03133 33245 ft 474 kts 326°
2026-04-25 15:37 28.06216 -80.05236 33568 ft 476 kts 326°
2026-04-25 15:37 28.08960 -80.07346 33892 ft 477 kts 326°
2026-04-25 15:38 28.11699 -80.09455 34283 ft 476 kts 326°
2026-04-25 15:38 28.14437 -80.11562 34664 ft 475 kts 326°
2026-04-25 15:38 28.17168 -80.13667 35007 ft 475 kts 326°
2026-04-25 15:38 28.19898 -80.15771 35361 ft 474 kts 326°
2026-04-25 15:39 28.22623 -80.17875 35691 ft 474 kts 326°
2026-04-25 15:39 28.25349 -80.19979 36058 ft 474 kts 326°
2026-04-25 15:39 28.28074 -80.22084 36414 ft 474 kts 326°
2026-04-25 15:39 28.30796 -80.24188 36774 ft 473 kts 326°
2026-04-25 15:40 28.33515 -80.26292 37152 ft 473 kts 326°
2026-04-25 15:40 28.34399 -80.26976 37277 ft 473 kts 326°
2026-04-25 15:40 28.38946 -80.30497 37896 ft 472 kts 326°
2026-04-25 15:40 28.41652 -80.32594 38260 ft 471 kts 326°
2026-04-25 15:41 28.44362 -80.34695 38617 ft 471 kts 326°
2026-04-25 15:41 28.47063 -80.36791 38907 ft 470 kts 326°
2026-04-25 15:41 28.49758 -80.38884 39240 ft 468 kts 326°
2026-04-25 15:41 28.52439 -80.40967 39578 ft 466 kts 326°
2026-04-25 15:42 28.55114 -80.43047 39860 ft 466 kts 325°
2026-04-25 15:42 28.57790 -80.45129 39939 ft 466 kts 325°
2026-04-25 15:42 28.63134 -80.49291 39956 ft 465 kts 326°
2026-04-25 15:43 28.68457 -80.53442 39955 ft 463 kts 326°
2026-04-25 15:43 28.73774 -80.57592 39957 ft 464 kts 325°
2026-04-25 15:44 28.79097 -80.61752 39957 ft 464 kts 325°
2026-04-25 15:44 28.84427 -80.65900 39966 ft 464 kts 327°
2026-04-25 15:45 28.90152 -80.69179 39969 ft 464 kts 336°
2026-04-25 15:45 28.94129 -80.71094 39984 ft 464 kts 337°
2026-04-25 15:46 29.02067 -80.74767 39977 ft 461 kts 337°
2026-04-25 15:46 29.08017 -80.77520 39978 ft 461 kts 337°
2026-04-25 15:47 29.13956 -80.80287 39977 ft 461 kts 337°
2026-04-25 15:47 29.19890 -80.83062 39975 ft 461 kts 337°
2026-04-25 15:48 29.25824 -80.85841 39977 ft 461 kts 337°
2026-04-25 15:48 29.31758 -80.88624 39971 ft 461 kts 337°
2026-04-25 15:49 29.37686 -80.91407 39959 ft 460 kts 337°
2026-04-25 15:49 29.43578 -80.94177 39969 ft 461 kts 337°
2026-04-25 15:50 29.49514 -80.96970 39966 ft 461 kts 337°
2026-04-25 15:50 29.55447 -80.99766 39974 ft 461 kts 337°
2026-04-25 15:51 29.59414 -81.01637 39970 ft 461 kts 337°
2026-04-25 15:51 29.67315 -81.05369 39972 ft 461 kts 337°
2026-04-25 15:52 29.73247 -81.08175 39968 ft 461 kts 337°
2026-04-25 15:52 29.79178 -81.10984 39973 ft 461 kts 337°
2026-04-25 15:53 29.84915 -81.14259 39978 ft 460 kts 330°
2026-04-25 15:53 29.90517 -81.17853 39979 ft 461 kts 330°
2026-04-25 15:54 29.96093 -81.21499 39980 ft 461 kts 330°
2026-04-25 15:54 30.01667 -81.25149 39979 ft 461 kts 330°
2026-04-25 15:55 30.07247 -81.28797 39967 ft 461 kts 330°
2026-04-25 15:55 30.12837 -81.32451 39981 ft 462 kts 329°
2026-04-25 15:56 30.18441 -81.36119 39968 ft 463 kts 329°
2026-04-25 15:56 30.28524 -81.42731 39972 ft 463 kts 329°
2026-04-25 15:57 30.34128 -81.46413 39976 ft 463 kts 329°
2026-04-25 15:57 30.39730 -81.50098 39973 ft 463 kts 329°
2026-04-25 15:58 30.44388 -81.53167 39946 ft 463 kts 329°
2026-04-25 15:58 30.50546 -81.57229 39962 ft 463 kts 329°
2026-04-25 15:59 30.56113 -81.60905 39962 ft 464 kts 329°
2026-04-25 15:59 30.61716 -81.64611 39959 ft 464 kts 329°
2026-04-25 16:00 30.65463 -81.67091 39952 ft 464 kts 329°
2026-04-25 16:00 30.72938 -81.72047 39951 ft 465 kts 329°
2026-04-25 16:01 30.78560 -81.75781 39943 ft 466 kts 329°
2026-04-25 16:01 30.83273 -81.78915 39942 ft 466 kts 329°
2026-04-25 16:02 30.88898 -81.82659 39939 ft 466 kts 329°
2026-04-25 16:02 30.94523 -81.86409 39935 ft 466 kts 329°
2026-04-25 16:03 31.00105 -81.90135 39940 ft 466 kts 329°
2026-04-25 16:03 31.05729 -81.93895 39933 ft 466 kts 329°
2026-04-25 16:04 31.11352 -81.97659 39935 ft 466 kts 329°
2026-04-25 16:04 31.16976 -82.01429 39936 ft 466 kts 329°
2026-04-25 16:05 31.22598 -82.05203 39939 ft 466 kts 329°
2026-04-25 16:06 31.31026 -82.10868 39948 ft 466 kts 329°
2026-04-25 16:06 31.36644 -82.14653 39949 ft 466 kts 329°
2026-04-25 16:07 31.42263 -82.18444 39949 ft 466 kts 329°
2026-04-25 16:07 31.47885 -82.22241 39944 ft 466 kts 329°
2026-04-25 16:08 31.53502 -82.26039 39937 ft 466 kts 329°
2026-04-25 16:08 31.59119 -82.29844 39940 ft 466 kts 328°
2026-04-25 16:09 31.64737 -82.33655 39926 ft 466 kts 328°
2026-04-25 16:09 31.70354 -82.37470 39926 ft 466 kts 328°
2026-04-25 16:10 31.75931 -82.41262 39922 ft 466 kts 328°
2026-04-25 16:10 31.81534 -82.45079 39927 ft 465 kts 328°
2026-04-25 16:11 31.87125 -82.48893 39935 ft 465 kts 328°
2026-04-25 16:11 31.92724 -82.52719 39650 ft 466 kts 328°
2026-04-25 16:11 31.95501 -82.54699 39404 ft 467 kts 324°
2026-04-25 16:12 31.98066 -82.57046 39180 ft 467 kts 319°
2026-04-25 16:12 32.00545 -82.59512 38940 ft 468 kts 318°
2026-04-25 16:12 32.03018 -82.62010 38704 ft 469 kts 318°
2026-04-25 16:12 32.04653 -82.63669 38541 ft 469 kts 318°
2026-04-25 16:13 32.07966 -82.67040 38168 ft 470 kts 318°
2026-04-25 16:13 32.10439 -82.69562 37905 ft 471 kts 318°
2026-04-25 16:13 32.12919 -82.72094 37632 ft 471 kts 318°
2026-04-25 16:13 32.15401 -82.74631 37379 ft 473 kts 318°
2026-04-25 16:14 32.17885 -82.77172 37106 ft 474 kts 318°
2026-04-25 16:14 32.20375 -82.79722 36837 ft 473 kts 318°
2026-04-25 16:14 32.22859 -82.82267 36578 ft 472 kts 318°
2026-04-25 16:14 32.25339 -82.84810 36319 ft 472 kts 318°
2026-04-25 16:15 32.27820 -82.87357 36065 ft 473 kts 318°
2026-04-25 16:15 32.30304 -82.89908 35680 ft 471 kts 318°
2026-04-25 16:15 32.32773 -82.92445 34958 ft 470 kts 318°
2026-04-25 16:15 32.35244 -82.94987 34119 ft 473 kts 318°
2026-04-25 16:16 32.37730 -82.97548 33150 ft 476 kts 318°
2026-04-25 16:16 32.40232 -83.00124 32197 ft 477 kts 318°
2026-04-25 16:16 32.42745 -83.02708 31227 ft 480 kts 318°
2026-04-25 16:16 32.45271 -83.05307 30228 ft 483 kts 317°
2026-04-25 16:17 32.47817 -83.07928 29063 ft 487 kts 318°
2026-04-25 16:17 32.50366 -83.10556 28237 ft 483 kts 318°
2026-04-25 16:17 32.52854 -83.13122 27512 ft 478 kts 317°
2026-04-25 16:17 32.55350 -83.15699 26767 ft 473 kts 317°
2026-04-25 16:18 32.57822 -83.18251 26019 ft 469 kts 317°
2026-04-25 16:18 32.58650 -83.19107 25761 ft 468 kts 317°
2026-04-25 16:18 32.62696 -83.23301 24523 ft 461 kts 317°
2026-04-25 16:18 32.65102 -83.25800 23784 ft 458 kts 317°
2026-04-25 16:19 32.67486 -83.28277 22975 ft 454 kts 317°
2026-04-25 16:19 32.69844 -83.30730 22207 ft 448 kts 317°
2026-04-25 16:19 32.72171 -83.33150 21479 ft 441 kts 317°
2026-04-25 16:20 32.76721 -83.37887 20030 ft 429 kts 317°
2026-04-25 16:20 32.78948 -83.40210 19303 ft 424 kts 317°
2026-04-25 16:20 32.83327 -83.44781 17855 ft 414 kts 317°
2026-04-25 16:21 32.85473 -83.47022 17123 ft 407 kts 316°
2026-04-25 16:21 32.87569 -83.49212 16787 ft 392 kts 316°
2026-04-25 16:21 32.89568 -83.51300 16647 ft 373 kts 316°
2026-04-25 16:21 32.91473 -83.53292 16518 ft 356 kts 316°
2026-04-25 16:22 32.93290 -83.55195 16383 ft 340 kts 316°
2026-04-25 16:22 32.95031 -83.57020 16208 ft 328 kts 316°
2026-04-25 16:22 32.96737 -83.58815 15743 ft 327 kts 316°
2026-04-25 16:22 32.98441 -83.60601 15260 ft 326 kts 316°
2026-04-25 16:23 33.00141 -83.62381 14799 ft 325 kts 315°
2026-04-25 16:23 33.01836 -83.64158 14324 ft 324 kts 315°
2026-04-25 16:23 33.03528 -83.65933 13853 ft 324 kts 315°
2026-04-25 16:23 33.05217 -83.67706 13346 ft 323 kts 315°
2026-04-25 16:24 33.06893 -83.69466 12923 ft 319 kts 315°
2026-04-25 16:24 33.08526 -83.71180 12809 ft 311 kts 315°
2026-04-25 16:24 33.10140 -83.72872 12543 ft 301 kts 315°
2026-04-25 16:24 33.11673 -83.74483 12243 ft 294 kts 315°
2026-04-25 16:25 33.13183 -83.76072 12018 ft 285 kts 315°
2026-04-25 16:25 33.14181 -83.77123 11813 ft 282 kts 314°
2026-04-25 16:25 33.16123 -83.79178 11318 ft 281 kts 315°
2026-04-25 16:25 33.17707 -83.80583 11050 ft 284 kts 323°
2026-04-25 16:26 33.19334 -83.81807 10990 ft 269 kts 324°
2026-04-25 16:26 33.20881 -83.82929 10980 ft 252 kts 324°
2026-04-25 16:26 33.22351 -83.83981 10985 ft 243 kts 324°
2026-04-25 16:26 33.23799 -83.85014 10987 ft 242 kts 324°
2026-04-25 16:27 33.25245 -83.86046 10989 ft 242 kts 324°
2026-04-25 16:27 33.26689 -83.87076 10991 ft 242 kts 324°
2026-04-25 16:27 33.28134 -83.88107 10989 ft 242 kts 324°
2026-04-25 16:27 33.29579 -83.89139 10988 ft 242 kts 324°
2026-04-25 16:28 33.31023 -83.90170 10995 ft 242 kts 324°
2026-04-25 16:28 33.32468 -83.91201 10991 ft 242 kts 324°
2026-04-25 16:28 33.33900 -83.92220 10911 ft 236 kts 324°
2026-04-25 16:28 33.35312 -83.93217 10589 ft 236 kts 324°
2026-04-25 16:29 33.36727 -83.94210 10222 ft 236 kts 324°
2026-04-25 16:29 33.38146 -83.95201 9855 ft 237 kts 324°
2026-04-25 16:29 33.39563 -83.96202 9469 ft 237 kts 324°
2026-04-25 16:29 33.40979 -83.97204 9103 ft 236 kts 324°
2026-04-25 16:30 33.42394 -83.98199 8752 ft 236 kts 324°
2026-04-25 16:30 33.43809 -83.99190 8405 ft 236 kts 324°
2026-04-25 16:30 33.45228 -84.00179 8049 ft 236 kts 324°
2026-04-25 16:30 33.46648 -84.01165 7709 ft 236 kts 324°
2026-04-25 16:31 33.48066 -84.02152 7371 ft 236 kts 324°
2026-04-25 16:31 33.49372 -84.03301 7026 ft 230 kts 309°
2026-04-25 16:31 33.50362 -84.04770 6724 ft 225 kts 299°
2026-04-25 16:31 33.51222 -84.06328 6426 ft 224 kts 297°
2026-04-25 16:32 33.52048 -84.07907 6146 ft 223 kts 296°
2026-04-25 16:32 33.52861 -84.09485 5857 ft 222 kts 296°
2026-04-25 16:32 33.53667 -84.11063 5593 ft 222 kts 296°
2026-04-25 16:32 33.54469 -84.12641 5283 ft 221 kts 295°
2026-04-25 16:33 33.55266 -84.14212 5007 ft 219 kts 296°
2026-04-25 16:33 33.56056 -84.15771 4650 ft 219 kts 296°
2026-04-25 16:33 33.56845 -84.17334 4295 ft 219 kts 297°
2026-04-25 16:33 33.57632 -84.18892 3973 ft 218 kts 297°
2026-04-25 16:34 33.58415 -84.20439 3692 ft 216 kts 297°
2026-04-25 16:34 33.59184 -84.21961 3502 ft 209 kts 297°
2026-04-25 16:34 33.59909 -84.23391 3389 ft 197 kts 297°
2026-04-25 16:34 33.60600 -84.24750 3211 ft 186 kts 297°
2026-04-25 16:35 33.61251 -84.26038 3019 ft 176 kts 297°
2026-04-25 16:35 33.61861 -84.27252 2829 ft 164 kts 297°
2026-04-25 16:35 33.62392 -84.28412 2728 ft 156 kts 292°
2026-04-25 16:35 33.62822 -84.29601 2701 ft 155 kts 287°
2026-04-25 16:36 33.63147 -84.30835 2704 ft 155 kts 281°
2026-04-25 16:36 33.63231 -84.31259 2703 ft 154 kts 279°
2026-04-25 16:36 33.63349 -84.33283 2702 ft 139 kts 263°
2026-04-25 16:36 33.63360 -84.34424 2700 ft 132 kts 270°
2026-04-25 16:37 33.63423 -84.35476 2689 ft 122 kts 270°